Home   Weather   Caracas   Past weeks

Flag for Venezuela Past Weather in Caracas, Venezuela — Yesterday and Last 2 Weeks

Now
88 °F

Scattered clouds.


Feels Like: 96 °F
Forecast: 69 / 79 °F
Wind: 3 mph from North

Location: Caracas / Maiquetia Aerop. Intl. Simon Bolivar

Current Time: May 29, 2017 at 3:14:28 pm

Latest Report: May 29, 2017 at 2:00 pm


Visibility: N/A

Pressure: 29.95 "Hg (27.15 "Hg at 875m altitude)

Humidity: 62%

Dew Point: 73 °F

Location of CaracasLocation

Past Weather in Caracas — Graph

°F

Caracas Temperature Yesterday

Maximum temperature yesterday: 90 °F (at 11:00 am)
Minimum temperature yesterday: 81 °F (at 3:00 am)
Average temperature yesterday: 85 °F

High & Low Weather Summary for the Past Weeks

 TemperatureHumidityPressure
High91 °F (May 18, 3:00 pm)84% (May 23, 7:00 pm)29.98 "Hg (May 23, 7:00 pm)
Low79 °F (May 23, 8:00 pm)46% (May 14, 3:00 pm)29.77 "Hg (May 19, 6:00 pm)
Average84 °F65%29.88 "Hg
* Reported May 14 2:00 pm — May 29 2:00 pm, Caracas. Weather by CustomWeather, © 2017

Note: Actual official high and low records may vary slightly from our data, if they occured in-between our weather recording intervals... More about our weather records

Advertising

Caracas Weather History for the Previous 24 Hours

Scroll right to see more
 ConditionsComfort  
Time TempWeatherWind HumidityBarometerVisibility
2:00 pm
Mon, May 29
88 °FScattered clouds.3 mph62%29.95 "HgN/A
1:00 pm86 °FScattered clouds.3 mph66%29.95 "HgN/A
12:00 pm86 °FScattered clouds.3 mph55%29.95 "HgN/A
11:00 am86 °FScattered clouds.5 mph55%29.98 "HgN/A
10:00 am88 °FPassing clouds.3 mph52%29.95 "HgN/A
9:00 am86 °FPassing clouds.3 mph59%29.95 "HgN/A
8:00 am82 °FPassing clouds.No wind70%29.92 "HgN/A
7:00 am81 °FScattered clouds.No wind62%29.92 "HgN/A
6:00 am81 °FPassing clouds.No wind62%29.92 "HgN/A
5:00 am81 °FPassing clouds.No wind62%29.92 "HgN/A
4:00 am81 °FPassing clouds.No wind62%29.92 "HgN/A
3:00 am82 °FPassing clouds.No wind62%29.92 "HgN/A
2:00 am82 °FPassing clouds.No wind62%29.95 "HgN/A
1:00 am82 °FPassing clouds.2 mph62%29.95 "HgN/A
12:00 am82 °FPassing clouds.2 mph62%29.98 "HgN/A
11:00 pm
Sun, May 28
82 °FPassing clouds.5 mph62%29.95 "HgN/A
10:00 pm82 °FPassing clouds.3 mph62%29.92 "HgN/A
9:00 pm82 °FPassing clouds.No wind62%29.89 "HgN/A
8:00 pm82 °FPassing clouds.No wind62%29.89 "HgN/A
7:00 pm84 °FPassing clouds.2 mph62%29.86 "HgN/A
6:00 pm86 °FPassing clouds.5 mph59%29.86 "HgN/A
5:00 pm88 °FPassing clouds.5 mph59%29.86 "HgN/A
4:00 pm88 °FPassing clouds.3 mph59%29.89 "HgN/A
3:00 pm90 °FPassing clouds.5 mph52%29.92 "HgN/A
Weather by CustomWeather, © 2017

See weather overviewHow to use our weather pages